sat.trackr.live / text

‹ back to catalog

STARLINK-34276

NORAD 64263 · 2025-120H

PAYLOAD ACTIVE UNKNOWN

§ Identity

Operator
Country
US
Launch date
2025-06-04
Launch site
AFWTR
Launch vehicle
Mass (kg)
RCS (m²)

Purposes: comms

External: N2YO · Heavens-Above · Gunter

§ Orbital elements

Epoch: 2026-09-20T13:53:29.240160Z

Period
94.01 min
Inclination
53.1614°
Eccentricity
0.0001095
Mean motion
15.31714323 rev/d
Perigee alt
469.9 km
Apogee alt
471.4 km
Semi-major
6,848.8 km
B*
3.9913e-4
RAAN
290.1020°
Arg perigee
87.3870°
Mean anomaly
272.7257°
Rev number
7,377

§ Raw data

STARLINK-342761 64263U 25120H   26263.57881065  .00012046  00000+0  39913-3 0  99902 64263  53.1614 290.1020 0001095  87.3870 272.7257 15.31714323 73771

JSON: /api/v1/satellites/64263 · /tle

For live sub-satellite position, see the globe view (requires WebGL).

§ Visibility from observer

Set your observer location to see the next 7 days of passes ≥ 10°. The values pass through the URL so the page stays shareable.

No JS? Fill the form by hand. The geolocation button needs JavaScript.